Lid_Strength_Index
-1 -1 -2 -2 -2 -2 -2 -2 -2 -2 -2 -2 -2 -2 -2 -2 -2 -2 -2 -2 -1 -1 -1 -1 -1 -1 -1 -1 -1 -1 -1 -1 -1 -1 -1 -1 -1 -1 -1 -1 -1 -1 -1
-1 -1 -1 -1 -2 -2 -2 -2 -2 -2 -1 -2 -1 -2 -1 -2 -2 -2 -2 -2 -1 -1 -1 -1 -1 -1 -1 -1 -1 -1 -1 -1 -1 -1 -1 -1 -1 -1 -1 -1 -1 -1 -1
-2 -2 -1 -1 -2 -2 -2 -2 -1 -2 -1 -1 -1 -2 -1 -2 -2 -2 -1 -2 -2 -2 -1 -1 -1 -1 -1 -1 -1 -1 -1 -1 -1 -1 -1 -1 -1 -1 -1 -1 -1 -2 -2
-2 -2 -1 -1 -2 -2 -2 -2 -2 -1 -1 -1 -1 -2 -2 -2 -2 -2 -2 -2 -2 -2 -2 -1 -1 -1 -1 -1 -1 -1 -1 -1 -1 -2 -1 -1 -1 -1 -1 -2 -2 -2 -2
-2 -2 -1 -1 -2 -2 -2 -1 -1 -1 -1 -1 -1 -2 -2 -2 -2 -1 -2 -2 -2 -2 -2 -2 -1 -1 -1 -1 -1 -1 -1 -1 -1 -1 -1 -1 -1 -1 -1 -1 -1 -2 -2
-2 -2 -1 -2 -1 -1 -1 -2 -1 -1 -1 -1 -1 -1 -1 -2 -2 -1 -1 -2 -1 -2 -2 -2 -2 -1 -1 -1 -1 -1 -1 -1 -1 -1 -1 -1 -1 -1 -1 -1 -1 -2 -2
-2 -2 -1 -1 -1 -1 -1 -1 -1 -0 -0 -1 0 0 -0 -1 -1 -1 -2 -2 -1 -1 -2 -2 -2 -2 -2 -1 -1 -1 -1 -1 -1 -1 -1 -1 -1 -1 -1 -1 -1 -1 -1
-1 -2 -2 -1 -1 -1 -1 -1 -0 0 -1 -1 1 1 2 1 -1 -1 -2 -1 -1 -1 -1 -1 -1 -2 -2 -2 -2 -1 -1 -1 -1 -1 -1 -1 -1 -1 -1 -1 -1 -1 -1
-1 -2 -2 -2 -1 -1 -0 -0 -0 -0 1 -1 -0 1 3 4 2 0 -0 -1 -1 -1 -2 -1 -1 -1 -2 -2 -1 -1 -1 -1 -1 -1 -1 -1 -1 -1 -1 -1 -1 -1 -1
-1 -2 -2 -2 -1 -1 -1 -1 -1 -0 -0 1 -0 -1 -0 1 3 3 1 -1 -1 -0 -1 -1 -1 -1 -2 -1 -2 -1 -1 -1 -1 -1 -1 -1 -1 -1 -1 -1 -1 -1 -1
-2 -2 -2 -2 -1 -1 -1 -1 -1 -1 -0 0 0 -0 0 1 0 2 3 1 -0 -1 -1 -1 -1 -1 -2 -2 -1 -2 -2 -1 -2 -1 -1 -1 -1 -1 -1 -1 -1 -1 -0
-1 -1 -1 -1 -2 -1 -1 -1 -1 -1 -1 -0 -0 0 1 2 2 2 3 2 2 -0 -1 -1 -1 -1 -2 -1 -2 -1 -1 -1 -1 -1 -1 -1 -1 -1 -1 -1 -1 -0 1
0 -1 -1 -1 -1 -1 -1 -1 -1 -1 -1 -0 -0 0 -0 0 0 1 2 2 2 1 -0 -1 -2 -2 -2 -2 -2 -2 -1 -1 -0 -0 -1 -1 -2 -1 -1 -0 -0 0 0
-0 -1 -1 -1 -1 -2 -1 -1 -1 -0 -1 -0 -0 -0 0 -0 -0 0 1 2 3 2 1 1 -1 -2 -2 -2 -1 -2 -1 0 -0 0 -0 -1 -1 -1 -1 -0 0 1 1
-1 -1 -1 -1 -1 -1 -1 -1 -0 -1 -1 -0 -0 -0 0 -0 -0 -0 -0 1 2 4 3 1 1 -1 -2 -2 -2 -2 -2 1 0 0 0 -0 -0 -0 0 0 1 1 2
-1 -1 -1 -1 -1 -1 -1 -1 -1 -1 -0 -0 -0 -1 -0 -0 -0 -0 -0 0 0 2 3 1 0 -1 -1 -1 -1 -2 -1 -0 1 1 0 0 0 1 1 1 1 2 3
-1 -1 -1 -1 -1 -1 -1 -1 -1 -1 -0 -0 -0 -0 -0 -1 0 0 -0 0 1 1 3 1 -0 -1 -1 -1 -1 -2 -1 -2 -1 1 1 1 1 1 1 2 2 3 3
-1 -1 -1 -1 -1 -1 -1 -1 -0 -0 -0 0 0 -0 0 0 -0 -0 -0 -0 -0 -0 1 2 1 0 -0 -1 -1 -1 -1 -1 -1 2 2 2 2 2 2 3 3 4 4
-0 -1 -1 -0 -0 -0 -0 -1 -1 -0 -0 -0 -0 -0 0 -0 0 0 -0 0 0 0 1 2 2 0 0 -0 -0 -1 -1 -1 -1 2 2 2 2 3 3 4 4 5 6
-0 -0 -0 -0 -0 -0 -0 -0 -0 -0 -0 -0 -0 -1 -0 -0 -0 -0 0 0 0 1 0 1 1 1 1 -0 0 1 1 -1 -1 -1 0 0 2 3 3 4 5 6 7
-0 -0 -0 -0 -0 -0 0 -0 -0 -0 -0 0 -0 -0 -1 -0 1 0 0 0 -0 1 1 2 2 1 1 1 1 0 1 -0 -0 -1 0 0 2 2 3 4 4 5 7
-0 -0 0 0 0 0 2 2 0 0 0 0 1 -0 -1 0 0 2 2 1 0 0 1 2 2 2 1 1 1 1 1 1 3 -1 1 2 2 3 3 3 4 6 7
0 0 0 0 0 -0 4 3 2 0 0 0 0 0 0 -0 -0 -0 2 3 2 2 2 0 1 1 1 0 0 1 1 1 1 0 0 2 3 4 3 4 5 6 7
1 1 1 0 0 0 3 4 2 0 0 -0 -0 -0 0 -0 -0 0 -0 0 0 -0 -0 -0 0 0 -0 -1 -1 -1 -0 0 0 0 -0 3 4 5 5 5 6 6 7
1 1 1 1 1 0 3 4 2 -0 0 0 -0 -0 -0 0 2 4 0 1 0 0 3 5 4 5 4 3 2 0 1 2 2 2 -0 1 3 6 6 6 6 7 8
1 1 1 1 2 0 5 6 4 1 1 1 0 -0 3 1 5 6 0 1 2 1 0 0 -0 2 3 1 3 -0 0 2 2 3 1 3 6 7 9 7 7 8 8